Regional Weather Roundup
Issued by NWS Boston, MA

Home | Current Version | Previous Version | Text Only | Print | Product List | Glossary On
Versions: 1 2 3 4 5 6 7 8 9 10 11 12 13 14 15 16 17 18 19 20 21 22 23 24 25 26 27 28 29 30 31 32 33 34 35 36 37 38 39 40 41 42 43 44 45 46 47 48 49 50
000
ASUS41 KBOX 042210
RWRBOX

REGIONAL WEATHER ROUNDUP
NATIONAL WEATHER SERVICE TAUNTON MA
600 PM EDT MON MAY 04 2015

NOTE:  "FAIR" INDICATES FEW OR NO CLOUDS BELOW 12,000 FEET WITH NO
SIGNIFICANT WEATHER AND/OR OBSTRUCTIONS TO VISIBILITY.  THE FOLLOWING
OBSERVATION LOCATIONS DO NOT REPORT PRESENT WEATHER...PROVINCETOWN...
SMITHFIELD...BLOCK ISLAND...KEENE...AND OXFORD.

MAZALL-042300-
EASTERN MASSACHUSETTS

CITY           SKY/WX    TMP DP  RH WIND       PRES   REMARKS
BOSTON         MOSUNNY   80  42  25 SW23G33   30.05F
BEVERLY        MOSUNNY   79  42  26 S17G25    30.04S
LAWRENCE       SUNNY     83  38  20 SW14G24   30.04F
BEDFORD        SUNNY     80  40  23 SW21G29   30.04S
BLUE HILL        N/A     78  37  22 SW25G41   30.08S
NORWOOD        SUNNY     81  36  19 SW21      30.07S
MARSHFIELD     SUNNY     79  43  27 SW13G26   30.11F
PLYMOUTH       SUNNY     70  48  45 VRB7      30.13F
TAUNTON        SUNNY     74  43  32 SW15G24   30.12F
NEW BEDFORD    SUNNY     70  43  37 SW18      30.14F
$$

MAZALL-042300-
CAPE COD AND THE ISLANDS

CITY           SKY/WX    TMP DP  RH WIND       PRES   REMARKS
FALMOUTH         N/A    N/A N/A N/A MISG        N/A
HYANNIS        SUNNY     62  53  72 SW16G24   30.16F
CHATHAM        SUNNY     57  51  80 SW13G22   30.20S
PROVINCETOWN   SUNNY     61  45  55 SW20G26   30.14S
NANTUCKET      MOSUNNY   55  50  83 SW12      30.20F
MARTHAS VNYRD  SUNNY    N/A N/A N/A SW17      30.18F
$$

MAZALL-042300-
CENTRAL AND WESTERN MASSACHUSETTS

CITY           SKY/WX    TMP DP  RH WIND       PRES   REMARKS
WORCESTER      SUNNY     78  40  25 SW22G28   30.10S
FITCHBURG      SUNNY     83  39  21 SW13G22   30.05F
ORANGE         MOSUNNY   79  41  25 S17G23    30.05F
SPRINGFIELD    MOSUNNY   80  42  26 S18G35    30.05S
WESTFIELD      MOSUNNY   81  41  24 S21G31    30.05F
NORTH ADAMS    PTSUNNY   81  38  21 SW8       30.04S
PITTSFIELD     CLOUDY    78  38  23 SW12      30.06S
$$

RIZALL-042300-
RHODE ISLAND

CITY           SKY/WX    TMP DP  RH WIND       PRES   REMARKS
PROVIDENCE     PTSUNNY   77  41  27 SW17G25   30.13S
NEWPORT        SUNNY     61  44  53 SW10G21   30.16F
BLOCK ISLAND   SUNNY     57  45  62 SW20      30.17F
SMITHFIELD     SUNNY     79  36  21 SW12G24   30.12S
WESTERLY       SUNNY     65  44  46 SW8       30.17S
$$

CTZALL-042300-
CONNECTICUT

CITY           SKY/WX    TMP DP  RH WIND       PRES   REMARKS
BRADLEY INTL   MOSUNNY   81  41  24 S18G31    30.07S
HARTFORD       SUNNY     78  41  26 S14G24    30.09F
BRIDGEPORT     SUNNY     72  44  36 S21G29    30.12F
DANBURY        SUNNY     77  40  26 SE15G22   30.12F
GROTON         SUNNY     64  45  49 SW12      30.15F
NEW HAVEN      SUNNY     69  44  40 S14G21    30.13F
CHESTER        NOT AVBL
MERIDEN        SUNNY     78  41  26 S15G23    30.11F
WILLIMANTIC    SUNNY     79  39  23 S16G29    30.11F
OXFORD         MOSUNNY   75  41  29 SW17G26   30.14F
$$

MEZ002-015-021-024-NHZ003-005-008-011-012-014-VTZ005-008-042300-
NORTHERN NEW ENGLAND

CITY           SKY/WX    TMP DP  RH WIND       PRES   REMARKS
PORTLAND ME    SUNNY     69  47  45 S15       30.01F
BANGOR ME      MOSUNNY   70  44  39 S13       29.99F
CONCORD NH     MOSUNNY   83  36  18 S9G22     30.01F
MANCHESTER NH  MOSUNNY   83  35  18 SW12      30.01S
NASHUA NH      MOSUNNY   84  39  20 W9G21     30.03F
PORTSMOUTH NH  MOSUNNY   83  37  19 SW15G21   29.99F
JAFFREY NH     MOSUNNY   79  39  23 S15       30.07S
KEENE NH       MOSUNNY   82  36  18 SW14G21   30.03F
BURLINGTON VT  PTSUNNY   81  37  20 SW9       29.95S
MT. WASHINGTON NOT AVBL
$$

NYZ052-076-042300-
EASTERN NEW YORK

CITY           SKY/WX    TMP DP  RH WIND       PRES   REMARKS
ALBANY         PTSUNNY   84  37  18 SW13      30.01F
NEW YORK CITY  MOSUNNY   78  46  32 S14       30.11F
$$

ANZALL-042300-
MARINE OBSERVATIONS

STATION/POSITION TIME  TEMP    WIND        PRES    VSBY  WAVE
                       AIR SEA DIR/SP/G                  HT/PER
                 (UTC) (F)     (DEG/KT/KT) (MB)    (MI)  (FT/S)
BOSTON BUOY      2150   59 47  180/ 14/ 17   N/A           3/11
BUZZARDS BAY     2100          210/ 20/ 21   N/A
NANTUCKET SOUND  2150   53 48  210/ 14/ 16   N/A           2/ 3
MASS BAY-STELLWA 2104   56 48  170/ 16/ 19   N/A    1 7/8  4/ 8
ISLE OF SHOALS   2100   60     170/ 27/ 28   N/A
S OF BLOCK IS    2108      47                N/A           3/ 8
$$

......................KEY.........................
  SKY/WX - SKY CONDITION/PRESENT WEATHER
  TMP    - TEMPERATURE IN FAHRENHEIT
  DWPT   - DEWPOINT IN FAHRENHEIT
  RH     - RELATIVE HUMIDITY IN PERCENT
  WIND   - DIRECTION AND SPEED IN MPH
  PRES   - MEAN SEA LEVEL PRESSURE IN INCHES OF HG
  WCI    - WIND CHILL INDEX
  VSB    - VISIBILITY IN MILES
  HX     - HEAT INDEX
  TC     - TEMPERATURE IN CELSIUS
  VRB    - VARIABLE WIND DIRECTION
  N/A    - NOT AVAILABLE



USA.gov is the U.S. government's official web portal to all federal, state and local government web resources and services.